Location: Kerdala�s
(48.5212°N, 4.5001°W)
Time: 14:50:00
(UTC+00:00)

Daily predictions for brighter satellites

Satellite Brightness Start Highest point End
(mag) Time Altitude Azimuth Time Altitude Azimuth Time Altitude Azimuth
H-2A R/B 3.8 19:35:35 10° SSW 19:40:10 34° W 19:44:42 10° NNW
Cosmos 1328 4.2 19:36:42 10° NNW 19:40:43 70° W 19:44:41 10° S
Cosmos 1464 Rocket 4.1 19:34:58 10° S 19:41:11 61° E 19:47:21 10° NNE
Nadezhda 4 Rocket 4.3 19:35:01 10° N 19:41:13 52° ENE 19:47:19 10° SSE
Resurs 1-3 4.5 19:38:33 10° SE 19:42:29 33° ENE 19:46:25 10° N
OBJECT-B 1.2 19:39:33 10° SE 19:42:36 43° ENE 19:45:43 10° N
SAR-Lupe-1 4.2 19:42:41 10° NNE 19:46:18 81° WNW 19:49:53 10° SSW
Cosmos 1110 Rocket 4.1 19:41:19 10° NNW 19:46:32 81° WSW 19:51:41 10° SSE
Cosmos 1825 4.1 19:44:27 10° NNE 19:46:39 15° ENE 19:48:51 10° ESE
Cosmos 1953 4.3 19:43:34 10° SW 19:47:17 34° WNW 19:51:00 10° N
COSMOS 2428 3.9 19:43:18 10° NNW 19:48:12 28° NE 19:53:05 10° ESE
Cosmos 1825 Rocket 3.8 19:45:09 10° N 19:49:25 51° ENE 19:53:42 10° SSE
Cosmos 1300 2.6 19:47:01 10° S 19:50:47 71° E 19:54:35 10° NNE
IRS-1A Rocket 4.5 19:46:01 10° SE 19:51:25 56° ENE 19:56:57 10° N
Lacrosse 5 rocket 1.3 19:49:00 10° SW 19:52:59 68° SE 19:57:13 10° ENE
CZ-4 R/B 4.1 19:49:40 10° SSW 19:53:03 23° W 19:56:28 10° NW
USA 238 DEB 4.3 19:46:45 10° NW 19:53:56 67° SW 20:01:23 10° SSE
MOS 1 4.4 19:48:30 10° SE 19:54:00 58° ENE 19:59:33 10° N
USA 238 4.3 19:46:51 10° NW 19:54:02 67° SW 20:01:30 10° SSE
Cosmos 1331 Rocket 4.2 19:49:13 10° NNW 19:54:24 77° WSW 19:59:36 10° SSE
CZ-4C R/B 2.1 19:49:39 10° SSW 19:54:27 58° ESE 20:00:15 10° NE
Cosmos 1758 Rocket 3.6 19:51:42 10° N 19:56:10 84° E 20:00:38 10° S
Helios 1A Rocket 3.9 19:53:04 10° S 19:57:01 50° W 20:01:01 10° NNW
Cosmos 1602 Rocket 4.4 19:55:41 10° NNW 19:59:55 53° W 20:04:10 10° S
Cosmos 2360 Rocket 2.2 19:54:14 10° NNW 19:59:56 77° ENE 20:05:35 10° SSE
MetOp-A 4.4 19:59:30 10° S 20:04:51 74° WSW 20:10:14 10° NNW
SJ-6B 2.7 20:02:01 10° SSE 20:05:44 87° WSW 20:09:30 10° NNW
CZ-2C R/B 3.7 20:04:35 10° N 20:09:32 48° WNW 20:14:31 10° SW
COSMOS 2487 3.8 20:08:05 13° SE 20:10:00 19° E 20:12:30 10° NE
Cosmos 2237 4.4 20:05:07 10° NNW 20:10:50 76° WSW 20:16:30 10° SSE
SL-16 R/B 3.3 20:05:51 10° NW 20:11:12 44° WSW 20:16:31 10° S
CENTAUR R/B 3.6 20:04:16 10° NW 20:12:17 63° WSW 20:21:00 10° SSE
ATLAS 3B R/B 3.4 20:08:15 10° NW 20:14:54 46° NE 20:20:51 14° ESE
USA 215 3.3 20:09:26 13° ESE 20:15:28 82° NNE 20:22:02 10° NW
ARIANE 5 R/B 4.3 20:14:35 13° E 20:16:51 19° ENE 20:19:56 10° NNE
Terra 4.0 20:16:15 10° ENE 20:17:32 11° NE 20:18:50 10° NE
Cosmos 2058 3.9 20:14:16 10° N 20:18:03 31° ENE 20:20:27 18° ESE
Cosmos 2219 Rocket 2.7 20:13:50 10° NNW 20:19:22 47° NE 20:23:34 17° ESE
Cosmos 482 Debris 3.4 20:22:20 10° SW 20:24:45 35° SSE 20:24:59 34° SE
Cosmos 1408 2.6 20:22:11 10° N 20:25:42 56° ENE 20:28:10 18° SSE
SPOT 1/Viking Rocket 4.4 20:22:47 17° ESE 20:26:07 34° ENE 20:30:47 10° N
Orbus 7S? 3.9 20:24:00 10° S 20:26:29 27° ESE 20:30:25 10° ENE
Exosat Rocket 4.4 20:19:23 10° NNW 20:26:31 50° NE 20:30:28 19° ESE
Cosmos 1455 2.7 20:24:28 15° SSE 20:27:07 36° E 20:30:35 10° NNE
Cosmos 405 Rocket 4.2 20:24:04 10° NNE 20:27:21 23° ENE 20:28:48 19° E
SME Rocket 4.2 20:24:52 10° N 20:28:27 43° WNW 20:32:27 10° SW
BREEZE-M DEB (TANK) 3.8 20:25:23 10° SW 20:28:28 60° SSE 20:36:26 10° ENE
RESURS DK-1 4.1 20:30:11 16° E 20:30:11 16° E 20:31:55 10° ENE
Cosmos 1606 Rocket 3.6 20:25:19 10° S 20:29:42 86° W 20:34:06 10° N
USA 186 3.9 20:27:14 10° SSW 20:30:05 27° W 20:32:53 10° NW
SPOT 3 Rocket 3.7 20:26:51 15° SE 20:31:07 60° ENE 20:36:14 10° N
Cosmos 405 3.2 20:28:47 14° SSE 20:31:33 45° E 20:34:54 10° NNE
BREEZE M DEB (TANK) 3.8 20:22:26 10° SW 20:32:54 42° SSE 20:35:26 19° E
Spot 2 Rocket 4.5 20:31:08 19° ESE 20:33:52 31° ENE 20:38:18 10° N
Cosmos 2251 Rocket 4.4 20:32:42 18° SE 20:35:33 27° E 20:40:01 10° NE
Cosmos 2098 Rocket 4.3 20:31:42 10° N 20:38:24 83° E 20:45:50 10° S
ATLAS 5 CENTAUR R/B 2.7 20:34:47 10° WSW 20:38:43 45° NW 20:43:12 10° NE
Cosmos 2237 Rocket 3.5 20:34:57 10° NNW 20:39:42 27° NE 20:42:52 17° E
IGS 5A 3.6 20:37:33 22° SE 20:40:03 58° ENE 20:44:09 10° N
Cosmos 389 Rocket 4.5 20:42:05 15° ENE 20:42:05 15° ENE 20:43:23 10° NE
Cosmos 1726 Rocket 3.6 20:37:26 10° S 20:41:50 82° W 20:46:14 10° N
USA 245 4.1 20:42:42 25° ESE 20:44:30 37° ENE 20:47:59 10° N
Cosmos 2195 Rocket 4.5 20:38:48 10° N 20:45:07 84° E 20:51:02 12° S
Landsat 7 3.8 20:46:03 23° SSE 20:49:00 67° ENE 20:53:45 10° N
CZ-2C R/B 4.0 20:45:20 10° NNE 20:49:38 44° E 20:51:48 25° SSE
SL-27 R/B 4.3 20:46:55 10° SW 20:50:09 33° WNW 20:53:22 10° N
Cosmos 2333 Rocket 2.2 20:47:30 10° NNW 20:53:19 90° WSW 20:56:57 24° SSE
Cosmos 1269 Rocket 4.4 20:48:11 10° SSW 20:53:28 69° WNW 20:58:48 10° NNE
Meteor 2-1 Rocket 4.4 20:49:52 13° S 20:54:58 57° E 21:00:45 10° NNE
Cosmos 1092 Rocket 4.1 20:49:05 10° NNW 20:55:23 78° W 21:01:26 11° S
Cosmos 2058 Rocket 3.0 20:52:54 10° S 20:57:16 89° E 21:01:39 10° N
Resurs 01 Rocket 1.7 20:54:28 20° S 20:57:33 78° WSW 21:02:03 10° NNW
Cosmos 1892 3.8 20:54:52 10° NNW 20:58:28 43° W 21:01:40 12° SSW
Cosmos 2322 Rocket 4.2 20:55:09 10° NW 20:59:39 24° WSW 21:04:07 10° SSW
NOSS 3-4 (A) 3.5 20:56:29 10° SW 21:02:19 81° NW 21:08:41 10° NE
NOSS 3-4 (C) 3.5 20:56:32 10° SW 21:02:25 81° NW 21:08:48 10° NE
Ariane Rocket 4.1 20:57:42 10° SSW 21:02:28 41° W 21:07:15 10° NNW
SL-8 R/B 3.6 21:00:19 10° W 21:05:10 83° S 21:07:15 34° ESE
Cosmos 2297 Rocket 3.9 21:07:22 16° E 21:07:22 16° E 21:09:27 10° ENE
Cosmos 2322 3.9 21:02:38 10° NNW 21:08:16 68° WSW 21:11:36 25° S
OBJECT-B 3.8 21:13:42 10° WSW 21:15:04 12° W 21:16:27 10° WNW
ATLAS 2AS CENTAUR R/B 3.0 21:08:09 10° SW 21:16:05 85° SE 21:23:53 10° NE
Meteor 2-3 Rocket 4.4 21:12:24 10° N 21:17:50 39° ENE 21:19:27 33° ESE
IRIDIUM 104 4.3 21:15:40 32° SSE 21:18:04 68° E 21:23:16 10° N
Cosmos 1818 3.9 21:17:27 37° SSE 21:18:34 41° ESE 21:23:40 10° NE
MetOp-B 4.2 21:16:25 26° S 21:19:33 75° WSW 21:24:57 10° NNW
Cosmos 1812 Rocket 3.8 21:19:21 45° ESE 21:19:39 46° E 21:23:55 10° NNE
Cosmos 1825 2.9 21:18:46 10° NNW 21:22:27 50° W 21:23:54 31° SSW
SPOT 5 3.0 21:24:54 44° E 21:25:36 49° ENE 21:30:05 10° N
Cosmos 1633 3.2 21:22:15 10° N 21:25:18 41° NE 21:25:18 41° NE
Cosmos 2344 3.4 21:19:45 10° SSW 21:27:11 73° SE 21:35:05 10° NE
IRIDIUM 114 4.2 21:24:48 33° S 21:27:12 81° E 21:32:27 10° N
Cosmos 1992 Rocket 4.5 21:24:57 10° NNW 21:30:02 54° WSW 21:32:26 29° S
SL-16 R/B 3.7 21:25:59 10° N 21:30:40 25° NE 21:32:47 20° ENE
Lacrosse 5 rocket 2.9 21:28:35 10° W 21:32:25 36° NNW 21:36:29 10° NE
COSMOS 2428 3.0 21:27:15 10° NNW 21:32:57 65° WSW 21:35:20 35° S
Cosmos 1980 3.9 21:28:43 10° NNW 21:34:21 60° ENE 21:35:57 43° ESE
Meteor 2-21 4.3 21:29:05 10° N 21:35:09 74° E 21:37:17 42° SSE
Cosmos 2279 Rocket 3.9 21:31:18 22° S 21:35:28 89° E 21:41:43 10° N
CARTOSAT-1 3.4 21:35:17 64° SSE 21:35:55 82° ENE 21:40:16 10° NNW
IRIDIUM 103 4.3 21:33:55 33° S 21:36:20 85° W 21:41:36 10° N
Cosmos 1076 Rocket 3.6 21:33:43 10° NNW 21:38:05 75° W 21:38:59 54° SSW
NOSS 0 Rocket 3.9 21:33:58 10° NNW 21:40:14 89° ENE 21:42:20 45° SSE
Cosmos 2360 Rocket 4.4 21:39:25 10° WNW 21:43:16 19° W 21:47:06 10° SW
CZ-4C R/B 3.8 21:38:26 10° W 21:43:19 36° NNW 21:49:11 10° NE
COSMOS 2487 4.3 21:41:37 10° SW 21:44:40 30° WNW 21:47:45 10° N
Cosmos 909 Rocket 3.9 21:38:57 10° SSW 21:45:17 76° ESE 21:51:44 10° NE
Cosmos 614 Rocket 3.8 21:45:13 51° S 21:46:26 74° ESE 21:51:34 10° NNE
Cosmos 407 Rocket 4.1 21:47:24 38° ENE 21:47:24 38° ENE 21:51:20 10° NE
Cosmos 2151 2.9 21:42:22 10° N 21:46:43 76° E 21:46:46 75° E
Cosmos 1809 Rocket 4.4 21:42:06 10° NNW 21:48:12 79° W 21:50:37 39° S
Cosmos 44 3.3 21:47:35 38° SSW 21:49:34 74° SE 21:54:57 10° NE
ARIANE 5 R/B 3.0 21:52:07 49° SW 21:52:55 58° W 21:57:18 10° NNW
Terra 1.8 21:54:06 65° E 21:54:23 67° ENE 21:59:08 10° N
ERS-1 Rocket 2.9 21:55:27 62° S 21:56:18 85° WSW 22:01:21 10° NNW
BREEZE-M DEB (TANK) 3.4 21:47:08 10° W 21:58:10 86° N 21:58:54 63° E
USA 215 4.1 21:56:47 30° SSW 21:58:52 37° SW 22:04:52 10° WNW
Cosmos 2266 Rocket 3.9 21:53:40 10° N 22:00:09 85° E 22:01:54 51° SSE
BREEZE-M DEB (TANK) 4.4 21:55:54 10° W 22:01:10 85° N 22:24:16 10° E
Cosmos 2219 Rocket 3.5 21:58:07 10° NW 22:03:08 33° WSW 22:05:17 25° SW
Cosmos 405 Rocket 4.1 21:59:43 10° NNW 22:03:24 34° W 22:03:56 33° WSW
ATLAS 3B R/B 3.1 21:59:00 10° NW 22:05:51 57° WSW 22:08:06 41° S
RESURS DK-1 3.0 22:05:55 45° WSW 22:06:48 55° WNW 22:10:53 10° NNE
Cosmos 1655 Rocket 4.1 22:01:44 10° NNW 22:08:03 74° W 22:09:59 46° SSW
Spot 2 Rocket 4.4 22:11:19 34° SW 22:12:42 41° W 22:17:32 10° NNW
Cosmos 389 Rocket 4.0 22:15:49 34° WNW 22:15:49 34° WNW 22:18:46 10° N
Cosmos 2251 Rocket 4.4 22:13:02 13° SW 22:17:34 49° WNW 22:22:46 10° NNE
Meteor 2-8 Rocket 4.3 22:20:56 65° ESE 22:21:22 67° E 22:27:28 10° NNE
Cosmos 1140 Rocket 3.6 22:22:48 61° NE 22:22:48 61° NE 22:27:10 10° NNE
Cosmos 2237 Rocket 2.2 22:18:39 10° NNW 22:24:15 67° WSW 22:24:42 64° SW
Cosmos 1190 Rocket 4.1 22:36:43 66° NE 22:36:43 66° NE 22:41:15 10° NNE
Cosmos 2333 Rocket 4.4 22:33:24 10° WNW 22:36:45 16° W 22:38:59 13° WSW
SeaSat 1 3.1 22:34:18 10° NNE 22:37:46 44° NE 22:37:46 44° NE
Cosmos 2227 Rocket 2.4 22:41:47 61° ENE 22:41:47 61° ENE 22:46:36 10° NNE
Cosmos 1553 Rocket 4.5 22:44:59 44° ENE 22:44:59 44° ENE 22:50:08 10° NNE
Cosmos 2219 3.1 22:45:46 78° NE 22:45:46 78° NE 22:51:02 10° NNE
COSMOS 2455 4.1 22:49:02 29° ENE 22:49:02 29° ENE 22:52:18 10° NE
Cosmos 2263 Rocket 4.5 22:49:57 11° ENE 22:49:57 11° ENE 22:50:17 10° ENE
Cosmos 2297 Rocket 2.1 22:49:07 81° WNW 22:49:08 81° WNW 22:54:50 10° NNE
Cosmos-2242 4.3 22:51:38 37° WNW 22:51:38 37° WNW 22:55:25 10° N
Okean 3 Rocket 4.5 22:47:04 10° NNW 22:50:42 48° NW 22:50:42 48° NW
Meteor 2-15 Rocket 4.4 22:59:53 72° ENE 22:59:53 72° ENE 23:05:37 10° NNE
Meteor 2-2 Rocket 4.5 23:02:38 63° NE 23:02:38 63° NE 23:07:39 10° NNE
ALOS 2 4.1 23:04:12 30° NNE 23:04:12 30° NNE 23:06:56 10° N
Cosmos 1763 Rocket 3.9 22:57:48 10° NNW 23:02:01 55° NNE 23:02:01 55° NNE
ATLAS 2AS CENTAUR R/B 4.3 23:00:37 10° W 23:07:54 38° NNW 23:14:57 10° NE
Lacrosse 5 rocket 3.5 23:08:50 10° NW 23:12:31 27° N 23:13:54 23° NNE
SL-16 R/B 2.4 23:09:40 10° NNW 23:14:39 64° WNW 23:14:39 64° WNW
Cosmos 2221 4.1 23:17:58 32° N 23:17:58 32° N 23:20:17 10° N
USA 281 4.0 23:22:55 38° E 23:24:17 42° NE 23:30:24 10° NNW
SL-08 ROCKET BODY 4.4 23:18:30 10° N 23:24:17 76° NW 23:24:17 76° NW
Terra 4.0 23:32:59 17° W 23:32:59 17° W 23:35:41 10° NW
Cosmos 540 Rocket 4.2 23:28:50 10° NNW 23:32:46 50° N 23:32:46 50° N
NOSS 3-1 (C) 4.0 23:28:51 10° NW 23:36:11 77° NE 23:37:38 63° ESE
Cosmos 1745 Rocket 4.0 23:38:31 10° N 23:44:29 76° NW 23:44:29 76° NW
Cosmos 1943 3.7 23:43:17 10° NNW 23:48:13 55° NNE 23:48:13 55° NNE
Cosmos 1709 Rocket 4.1 23:45:01 10° N 23:50:48 68° NE 23:50:48 68° NE
